Miscellaneous Local Product
Issued by NWS Hastings, NE

Home | Current Version | Previous Version | Text Only | Print | Product List | Glossary Off
Versions: 1 2 3 4 5 6 7 8 9 10 11 12 13 14 15 16 17 18 19 20 21 22 23 24 25 26 27 28 29 30 31 32 33 34 35 36 37 38 39 40 41 42 43 44 45 46 47 48 49 50

000
AXUS43 KGID 010102
MISGRI

GID CWA HOURLY WEATHER ROUNDUP
NATIONAL WEATHER SERVICE HASTINGS NE
800 PM CDT MON AUG 31 2015

NOTE: "FAIR" INDICATES FEW OR NO CLOUDS BELOW 12,000 FEET WITH NO
SIGNIFICANT WEATHER AND/OR OBSTRUCTIONS TO VISIBILITY.

...SOUTH CENTRAL NEBRASKA...

CITY           SKY/WX    TMP DP  RH WIND       PRES   REMARKS
GRAND ISLAND   CLEAR     81  69  67 E6        29.90S
HASTINGS       CLEAR     83  65  54 SE8       29.89R
KEARNEY        CLEAR     79  66  65 E7        29.89S
ORD            CLEAR     83  65  54 SE8       29.88S
YORK           CLEAR     75  72  88 CALM      29.90R
AURORA         CLEAR     77  73  87 E6        29.89S
LEXINGTON      CLEAR     80  70  70 NE6       29.89F
HOLDREGE       CLEAR     80  64  58 SE7       29.88F
HEBRON         CLEAR     81  64  56 SE5       29.88S

...NEBRASKA PANHANDLE...

CITY           SKY/WX    TMP DP  RH WIND       PRES   REMARKS
CHADRON        MOCLDY    79  55  43 SE3       29.94R HAZE
ALLIANCE       MOCLDY    73  53  49 SE6       29.99S
SCOTTSBLUFF    LGT RAIN  69  58  67 SW13      30.04R
SIDNEY         PTCLDY    76  49  38 E7        30.04R

...WESTERN AND NORTH CENTRAL NEBRASKA...

CITY           SKY/WX    TMP DP  RH WIND       PRES   REMARKS
VALENTINE      MOCLDY    74  60  61 N6        29.94F
AINSWORTH      MOCLDY    74  65  74 N6        29.93S
ONEILL         PTCLDY    82  70  65 E6        29.89S
BROKEN BOW     PTCLDY    82  67  60 SE6       29.90F
IMPERIAL       MOCLDY    82  60  47 N8        29.92S
NORTH PLATTE   PTCLDY    77  68  73 E7        29.90S
MCCOOK         CLEAR     85  63  47 NE8       29.86S

...EASTERN NEBRASKA...

CITY           SKY/WX    TMP DP  RH WIND       PRES   REMARKS
NORFOLK        CLEAR     78  70  76 SE8       29.89S
SO SIOUX CITY  CLEAR     77  68  73 SE5       29.89S
TEKAMAH        CLEAR     75  71  87 SE3       29.89F
COLUMBUS       CLEAR     81  68  65 CALM      29.89S
ALBION         CLEAR     77  70  78 SE6       29.90S
OMAHA EPPLEY   PTCLDY    80  69  69 SE6       29.90S
OFFUTT AFB     CLEAR     76  70  80 E6        29.89F
MILLARD        CLEAR     80  69  70 CALM      29.89S
LINCOLN        CLEAR     83  68  60 SE7       29.89S
NEBRASKA CITY  CLEAR     79  66  65 SE6       29.91S
BEATRICE       CLEAR     82  70  67 SE5       29.89S
FALLS CITY     CLEAR     78  71  79 SE7       29.90S

...NORTHERN KANSAS...

CITY           SKY/WX    TMP DP  RH WIND       PRES   REMARKS
GOODLAND       PTCLDY    85  50  29 SE6       29.92S
HILL CITY      CLEAR     91  50  24 S9        29.86S
NORTON         CLEAR     82  48  30 S3        29.85S
PHILLIPSBURG   CLEAR     90  54  29 CALM      29.84S
SMITH CENTER   CLEAR     81  61  50 E10       29.86S
HAYS           CLEAR     90  52  27 S13       29.87S
RUSSELL        CLEAR     89  56  32 S12       29.86S
CONCORDIA      CLEAR     79  64  60 S9        29.89S
SALINA         CLEAR     85  65  51 SE9       29.88S
TOPEKA         CLEAR     80  71  74 E7        29.92S



USA.gov is the U.S. government's official web portal to all federal, state and local government web resources and services.